#timestamp,LO_Frequency,Hit,StdDev 
1581796815.2,286047002.4,N
1581796835.0,286047000.2,N
1581796835.9,286047000.2,N
1581796855.8,286047002.0,N
1581796875.6,286047001.4,N
1581796895.4,286047003.7,N
1581796915.3,286047001.8,N
1581796935.1,286047002.1,N
1581796955.9,286047000.6,N
1581796975.7,286047000.7,N
1581796995.5,286046999.6,N
1581797015.4,286046999.2,N
1581797035.2,286046998.5,N
1581797055.0,286046999.4,N
1581797056.0,286046999.4,N
1581797075.8,286047000.2,N
1581797095.6,286047004.3,N
1581797115.5,286047002.3,N
1581797135.3,286047000.0,N
1581797155.1,286047003.1,N
1581797175.9,286047005.7,Y
1581797195.7,286047004.0,P
1581797215.6,286047002.3,N
1581797235.4,286047000.0,N
1581797255.2,286047000.1,N
1581797275.1,286047001.0,N
1581797276.0,286047001.0,N
1581797295.8,286046998.3,N
1581797315.7,286046999.7,N
1581797335.5,286047001.5,N
1581797355.3,286046999.8,N
1581797375.2,286046998.6,N
1581797395.9,286047000.8,N
1581797415.7,286047000.0,N
1581797435.6,286047001.3,N
1581797455.4,286047004.1,N
1581797475.3,286047004.3,N
1581797495.1,286047003.9,N
1581797496.0,286047003.9,N
1581797515.8,286047002.2,N
1581797535.7,286047001.0,N
1581797555.5,286047000.1,N
1581797575.3,286046998.6,N
1581797595.2,286047000.1,N
1581797615.0,286047001.1,N
1581797615.9,286047001.1,N
1581797635.8,286046998.3,N
1581797655.6,286046998.6,N
1581797675.4,286046998.8,N
1581797695.3,286046998.1,N
1581797715.1,286046998.8,N
1581797735.9,286047001.1,N
1581797755.7,286046999.5,N
1581797775.5,286046997.8,N
1581797795.4,286046994.9,N
1581797815.2,286046995.1,N
1581797835.0,286046996.1,N
1581797836.0,286046996.1,N
1581797855.8,286046996.8,N
1581797875.6,286046997.0,N
1581797895.5,286046997.3,N
1581797915.3,286046997.3,N
1581797935.1,286046999.5,N
1581797955.9,286046998.2,N
1581797975.7,286046998.6,N
1581797995.6,286047000.0,N
1581798015.4,286047001.2,N
1581798035.2,286046998.1,N
1581798055.1,286046996.6,N
1581798056.0,286046996.6,N
1581798075.8,286046997.6,N
1581798095.7,286046997.7,N
1581798115.5,286046997.9,N
1581798135.3,286046997.2,N
1581798155.2,286046995.4,N
1581798175.0,286046995.1,Y
1581798175.9,286046995.1,P
1581798195.7,286046997.2,N
1581798215.6,286046998.7,N
1581798235.4,286047000.4,N
1581798255.3,286047005.2,N
1581798275.1,286047005.4,N
1581798295.8,286047004.3,N
1581798315.7,286047002.8,N
1581798335.5,286047002.8,N
1581798355.4,286047000.0,N
1581798375.2,286047000.9,N
1581798395.0,286047002.4,N
1581798395.9,286047002.4,N
1581798415.8,286047000.4,N
1581798435.6,286047002.6,N
1581798455.4,286047002.4,N
1581798475.3,286047000.0,N
1581798495.1,286047000.0,N
1581798515.9,286047000.7,N
1581798535.7,286047001.0,N
1581798555.5,286047001.4,N
1581798575.4,286047000.5,N
1581798595.2,286046999.2,N
1581798615.0,286046998.9,N
1581798616.0,286046998.9,N
1581798635.8,286046999.0,N
1581798655.6,286046996.6,N
1581798675.5,286046996.7,N
1581798695.3,286046999.6,N
1581798715.1,286046997.7,N
1581798735.9,286046999.5,N
1581798755.7,286046999.4,N
1581798775.6,286046998.2,N
1581798795.4,286046998.3,N
1581798815.2,286046998.5,N
1581798835.1,286047000.9,N
1581798836.0,286047000.9,N
1581798855.8,286047000.4,N
1581798875.6,286047000.7,N
1581798895.5,286047000.7,N
1581798915.3,286047000.5,N
1581798935.2,286047000.7,N
1581798955.9,286046998.1,N
1581798975.7,286046999.8,N
1581798995.6,286047000.1,N
1581799015.4,286046999.8,N
1581799035.3,286047004.4,Y
1581799055.1,286047004.0,P
1581799056.0,286047004.0,N
1581799075.8,286047003.7,N
1581799095.7,286047004.8,N
1581799115.5,286047004.5,N
1581799135.3,286047006.1,Y
1581799155.2,286047006.0,P
1581799175.0,286047003.5,N
1581799175.9,286047003.5,N
1581799195.8,286047001.4,N
1581799215.6,286047002.3,N
1581799235.4,286047002.5,N
1581799255.3,286047004.4,Y
1581799275.1,286046999.0,P
1581799295.9,286046998.3,N
1581799315.7,286047000.7,N
1581799335.5,286047000.0,N
1581799355.4,286047002.3,N
1581799375.2,286047002.5,N
1581799395.0,286047002.4,N
1581799396.0,286047002.4,N
1581799415.8,286047002.8,N
1581799435.6,286046998.1,N
1581799455.5,286046998.4,N
1581799475.3,286046999.4,N
1581799495.1,286046996.7,N
1581799515.9,286047000.6,N
1581799535.7,286046998.2,N
1581799555.6,286046998.6,N
1581799575.4,286047001.1,N
1581799595.2,286047000.7,N
1581799615.1,286047002.2,N
1581799616.0,286047002.2,N
1581799635.8,286047000.2,N
1581799655.6,286047002.6,N
1581799675.5,286047001.9,N
1581799695.3,286047001.7,N
1581799715.2,286047004.0,N
1581799735.9,286047002.1,N
1581799755.7,286046999.9,N
1581799775.6,286046999.9,N
1581799795.4,286047001.5,N
1581799815.3,286047003.9,N
1581799835.1,286047003.2,N
1581799836.0,286047003.2,N
1581799855.8,286047005.5,N
1581799875.7,286047004.8,N
1581799895.5,286047005.1,N
1581799915.3,286047005.2,N
1581799935.2,286047007.6,Y
1581799955.0,286047003.8,P
1581799955.9,286047003.8,P
1581799975.8,286047004.0,P
1581799995.6,286047002.5,N
1581800015.4,286047002.0,N
1581800035.3,286047001.6,N
1581800055.1,286047004.1,Y
1581800075.9,286047004.2,P
1581800095.7,286047003.7,P
1581800115.5,286047004.9,P
1581800135.4,286047004.9,Y
1581800155.2,286047003.8,P
1581800175.1,286047001.7,P
1581800176.0,286047001.7,N
1581800195.8,286047005.6,Y
1581800215.6,286047002.4,P
1581800235.5,286046999.8,N
1581800255.3,286046999.8,N
1581800275.1,286047002.5,N
1581800295.9,286046998.1,N
1581800315.7,286046996.6,N
1581800335.6,286046998.7,N
1581800355.4,286047001.3,N
1581800375.2,286047005.8,N
1581800395.1,286047006.6,N
1581800396.0,286047006.6,N
